#timestamp,LO_Frequency,Hit,StdDev 
1701576015.0,286046996.7,N
1701576015.9,286046996.7,N
1701576035.8,286046999.2,N
1701576055.6,286046997.1,N
1701576075.5,286046997.0,N
1701576095.3,286046996.9,N
1701576115.1,286046996.5,N
1701576135.9,286046996.9,N
1701576155.7,286046998.0,N
1701576175.5,286046997.1,N
1701576195.4,286046994.9,Y
1701576215.2,286046998.6,P
1701576235.1,286046998.2,P
1701576236.0,286046998.2,P
1701576255.8,286046999.9,N
1701576275.6,286047001.0,N
1701576295.5,286047001.2,N
1701576315.3,286047000.4,N
1701576335.2,286046999.8,N
1701576355.9,286047000.5,N
1701576375.7,286046998.2,N
1701576395.6,286046998.8,N
1701576415.4,286046999.2,N
1701576435.3,286046998.9,N
1701576455.1,286047001.1,N
1701576456.0,286047001.1,N
1701576475.8,286046998.3,N
1701576495.7,286046998.3,N
1701576515.5,286046998.9,N
1701576535.3,286046999.2,N
1701576555.2,286046996.9,N
1701576575.0,286046997.0,N
1701576575.9,286046997.0,N
1701576595.8,286046997.3,N
1701576615.6,286046999.5,N
1701576635.4,286046999.6,N
1701576655.3,286046998.4,N
1701576675.1,286046998.7,N
1701576695.9,286046998.3,N
1701576715.7,286046998.3,N
1701576735.5,286046998.9,N
1701576755.4,286046996.9,N
1701576775.2,286046999.1,N
1701576795.1,286046999.4,N
1701576796.0,286046999.4,N
1701576815.8,286046997.1,N
1701576835.6,286046996.6,N
1701576855.5,286046996.7,N
1701576875.3,286046997.4,N
1701576895.1,286046997.4,N
1701576915.9,286046997.3,N
1701576935.7,286046996.5,N
1701576955.6,286046996.8,N
1701576975.4,286046996.6,N
1701576995.2,286046997.2,N
1701577015.1,286046996.9,N
1701577016.0,286046996.9,Y
1701577035.8,286047000.3,P
1701577055.6,286047002.7,N
1701577075.5,286047001.0,N
1701577095.3,286047002.8,N
1701577115.2,286046999.8,N
1701577135.9,286047002.1,N
1701577155.7,286047001.7,N
1701577175.6,286047002.0,N
1701577195.4,286047000.1,N
1701577215.2,286047000.3,N
1701577235.1,286046999.8,N
1701577236.0,286046999.8,N
1701577255.8,286046999.7,N
1701577275.7,286046999.8,N
1701577295.5,286047002.7,N
1701577315.3,286047000.0,N
1701577335.2,286047000.3,N
1701577355.0,286046999.9,N
1701577355.9,286046999.9,N
1701577375.8,286046999.8,N
1701577395.6,286046999.7,N
1701577415.4,286046999.7,N
1701577435.3,286047000.2,N
1701577455.1,286046999.7,N
1701577475.8,286047002.3,N
1701577495.7,286047003.5,N
1701577515.5,286047006.0,Y
1701577535.4,286047001.3,P
1701577555.2,286047001.7,P
1701577575.0,286047004.0,P
1701577575.9,286047004.0,Y
1701577595.8,286047000.2,P
1701577615.6,286046998.6,N
1701577635.5,286046998.7,N
1701577655.3,286046998.9,N
1701577675.1,286046999.4,N
1701577695.9,286046998.2,N
1701577715.7,286047000.4,N
1701577735.5,286047000.4,N
1701577755.4,286047002.5,N
1701577775.2,286047002.4,N
1701577795.0,286047002.7,N
1701577796.0,286047002.7,N
1701577815.8,286047001.3,N
1701577835.6,286047004.2,N
1701577855.5,286047004.2,N
1701577875.3,286047003.5,N
1701577895.1,286047005.9,Y
1701577915.9,286047003.0,P
1701577935.7,286047003.3,P
1701577955.6,286047005.7,P
1701577975.4,286047003.1,N
1701577995.2,286047003.2,N
1701578015.1,286047005.9,Y
1701578016.0,286047005.9,P
1701578035.8,286047002.8,N
1701578055.6,286047002.1,N
1701578075.5,286046999.9,N
1701578095.3,286047002.1,N
1701578115.2,286047002.5,N
1701578135.9,286047002.8,N
1701578155.7,286047002.5,N
1701578175.6,286047004.3,N
1701578195.4,286047002.7,N
1701578215.2,286047000.9,N
1701578235.1,286046999.7,N
1701578236.0,286046999.7,N
1701578255.8,286047000.4,N
1701578275.7,286047000.5,N
1701578295.5,286046999.9,N
1701578315.3,286047002.4,N
1701578335.2,286047002.7,N
1701578355.0,286047002.0,N
1701578355.9,286047002.0,N
1701578375.8,286047003.7,N
1701578395.6,286047001.5,N
1701578415.4,286047004.3,N
1701578435.3,286047003.1,N
1701578455.1,286047003.2,N
1701578475.9,286047004.2,N
1701578495.7,286047004.1,N
1701578515.5,286047001.3,N
1701578535.4,286047003.0,N
1701578555.2,286047005.5,Y
1701578575.1,286047004.0,P
1701578576.0,286047004.0,P
1701578595.8,286047002.6,P
1701578615.7,286047002.7,Y
1701578635.5,286046997.1,P
1701578655.3,286046997.3,N
1701578675.2,286046997.6,N
1701578695.0,286046997.3,N
1701578695.9,286046997.3,N
1701578715.7,286046998.8,N
1701578735.6,286046996.8,N
1701578755.4,286046996.7,N
1701578775.3,286046997.3,N
1701578795.1,286046997.1,N
1701578815.8,286046997.5,N
1701578835.7,286046996.8,N
1701578855.5,286046996.6,N
1701578875.3,286046999.2,N
1701578895.2,286046998.9,N
1701578915.0,286047001.1,N
1701578915.9,286047001.1,N
1701578935.8,286047002.2,N
1701578955.6,286047000.2,N
1701578975.4,286047002.5,N
1701578995.3,286047002.4,N
1701579015.1,286047002.1,N
1701579035.9,286047002.7,N
1701579055.7,286047002.4,N
1701579075.5,286047002.6,N
1701579095.4,286047000.1,N
1701579115.2,286047000.2,N
1701579135.1,286047000.0,N
1701579136.0,286047000.0,N
1701579155.8,286047001.0,N
1701579175.7,286047000.0,N
1701579195.5,286047000.9,N
1701579215.3,286046998.5,N
1701579265.2,286047001.2,E
1701579275.1,286046998.6,N
1701579295.9,286046996.5,P
1701579315.7,286046999.2,N
1701579335.5,286046997.0,N
1701579355.4,286046997.0,N
1701579375.2,286046996.5,Y
1701579395.1,286047000.1,P
1701579396.0,286047000.1,N
1701579415.8,286046999.9,N
1701579435.7,286046999.8,N
1701579455.5,286046999.7,N
1701579475.3,286047002.7,Y
1701579495.2,286047002.3,P
1701579515.0,286047004.4,P
1701579515.9,286047004.4,N
1701579535.8,286047003.6,N
1701579555.6,286047005.2,N
1701579575.4,286047003.4,N
1701579595.3,286047003.6,N
